This is the latest recevied weather packets stored in our database for station/object N4AN. If no packets are shown the sender has not sent any weather packets the latest 10 day(s).
| Time | Temp. | Humidity | Pressure | Rain* | Wind** | Luminosity | Snow |
|---|---|---|---|---|---|---|---|
| 1787501273 | 35° C | 65% | 1011.4 hPa | 0 mm | - | - | - |
| 1787500973 | 34.44° C | 66% | 1011.3 hPa | 0 mm | - | - | - |
| 1787500672 | 34.44° C | 65% | 1011.3 hPa | 0 mm | - | - | - |
| 1787500372 | 35° C | 66% | 1011.2 hPa | 0 mm | - | - | - |
| 1787500071 | 35° C | 66% | 1011.2 hPa | 0 mm | - | - | - |
| 1787499770 | 35° C | 66% | 1011.2 hPa | 0 mm | - | - | - |
| 1787499470 | 34.44° C | 66% | 1011.3 hPa | 0 mm | - | - | - |
| 1787499170 | 35° C | 65% | 1011.3 hPa | 0 mm | - | - | - |
| 1787498870 | 34.44° C | 66% | 1011.3 hPa | 0 mm | - | - | - |
| 1787498569 | 34.44° C | 66% | 1011.4 hPa | 0 mm | - | - | - |
| 1787498269 | 33.89° C | 67% | 1011.4 hPa | 0 mm | - | - | - |
| 1787497969 | 33.33° C | 67% | 1011.4 hPa | 0 mm | - | - | - |
| 1787497668 | 33.89° C | 67% | 1011.4 hPa | 0 mm | - | - | - |
| 1787497367 | 33.33° C | 67% | 1011.5 hPa | 0 mm | - | - | - |
| 1787497064 | 33.33° C | 69% | 1011.5 hPa | 0 mm | - | - | - |
| 1787496764 | 33.33° C | 69% | 1011.4 hPa | 0 mm | - | - | - |
| 1787496463 | 32.22° C | 71% | 1011.5 hPa | 0 mm | - | - | - |
| 1787496163 | 32.22° C | 71% | 1011.5 hPa | 0 mm | - | - | - |
| 1787495863 | 32.22° C | 70% | 1011.6 hPa | 0 mm | - | - | - |
| 1787495561 | 32.22° C | 69% | 1011.7 hPa | 0 mm | - | - | - |
| 1787495260 | 32.22° C | 70% | 1011.7 hPa | 0 mm | - | - | - |
| 1787494960 | 32.78° C | 69% | 1011.7 hPa | 0 mm | - | - | - |
| 1787494658 | 33.33° C | 68% | 1011.7 hPa | 0 mm | - | - | - |
| 1787494356 | 32.78° C | 68% | 1011.5 hPa | 0 mm | - | - | - |
| 1787494056 | 32.78° C | 68% | 1011.7 hPa | 0 mm | - | - | - |
* Rain latest hour (hover to see other rain measurements)
** Current wind speed in m/s (hover to see current wind gust speed)